| time (UTC) | temp F | wind direction | speed MPH | gust MPH | rain 1hr in | rain 24hr in | rain mn in | humidity % | barometer mb |
| 20260505012502 | 73 | 165 | 0.0 | 0.0 | 0.00 | 0.00 | 0.00 | 61 | 1000.6 |
| 20260505012042 | 74 | 165 | 0.0 | 0.0 | 0.00 | 0.00 | 0.00 | 60 | 1000.5 |
| 20260505011517 | 74 | 165 | 0.0 | 0.0 | 0.00 | 0.00 | 0.00 | 60 | 1000.4 |
| 20260505011058 | 74 | 165 | 0.0 | 0.0 | 0.00 | 0.00 | 0.00 | 59 | 1000.3 |
| 20260505010532 | 75 | 165 | 0.0 | 0.0 | 0.00 | 0.00 | 0.00 | 58 | 1000.3 |
| 20260505010009 | 75 | 165 | 0.0 | 0.0 | 0.00 | 0.00 | 0.00 | 58 | 1000.2 |
| 20260505005550 | 75 | 165 | 0.0 | 0.0 | 0.00 | 0.00 | 0.00 | 57 | 1000.1 |
| 20260505005028 | 76 | 165 | 0.0 | 0.0 | 0.00 | 0.00 | 0.00 | 57 | 1000.1 |
| 20260505004504 | 76 | 165 | 0.0 | 0.0 | 0.00 | 0.00 | 0.00 | 57 | 1000.1 |
| 20260505004044 | 76 | 165 | 0.0 | 0.0 | 0.00 | 0.00 | 0.00 | 56 | 1000.0 |
| 20260505003525 | 77 | 165 | 0.0 | 0.0 | 0.00 | 0.00 | 0.00 | 56 | 1000.0 |
| 20260505003102 | 77 | 165 | 0.0 | 0.0 | 0.00 | 0.00 | 0.00 | 55 | 999.9 |
| 20260505002541 | 77 | 165 | 0.0 | 0.0 | 0.00 | 0.00 | 0.00 | 55 | 999.9 |
| 20260505002014 | 77 | 165 | 0.0 | 0.0 | 0.00 | 0.00 | 0.00 | 54 | 999.9 |
| 20260505001557 | 78 | 165 | 0.0 | 0.0 | 0.00 | 0.00 | 0.00 | 53 | 999.9 |
| 20260505001032 | 78 | 295 | 0.0 | 0.0 | 0.00 | 0.00 | 0.00 | 52 | 999.9 |
| 20260505000505 | 78 | 295 | 0.0 | 1.0 | 0.00 | 0.00 | 0.00 | 51 | 999.9 |
| 20260505000054 | 78 | 295 | 0.0 | 1.0 | 0.00 | 0.00 | 0.00 | 51 | 999.9 |
| 20260504235523 | 79 | 295 | 0.0 | 1.0 | 0.00 | 0.00 | 0.00 | 50 | 999.8 |
| 20260504235105 | 79 | 295 | 0.0 | 1.0 | 0.00 | 0.00 | 0.00 | 49 | 999.8 |
| 20260504234546 | 79 | 295 | 0.0 | 3.0 | 0.00 | 0.00 | 0.00 | 48 | 999.8 |
| 20260504234017 | 79 | 153 | 0.0 | 1.0 | 0.00 | 0.00 | 0.00 | 51 | 999.8 |
| 20260504233557 | 80 | 136 | 0.0 | 2.0 | 0.00 | 0.00 | 0.00 | 50 | 999.9 |
| 20260504233035 | 80 | 168 | 0.0 | 2.0 | 0.00 | 0.00 | 0.00 | 50 | 999.8 |
| 20260504232511 | 80 | 307 | 0.0 | 2.0 | 0.00 | 0.00 | 0.00 | 49 | 999.8 |
| 20260504232051 | 81 | 319 | 0.0 | 3.0 | 0.00 | 0.00 | 0.00 | 47 | 999.8 |
| 20260504231535 | 80 | 117 | 0.0 | 3.0 | 0.00 | 0.00 | 0.00 | 47 | 999.9 |
| 20260504231003 | 80 | 117 | 0.0 | 1.0 | 0.00 | 0.00 | 0.00 | 48 | 999.9 |
| 20260504230545 | 80 | 117 | 0.0 | 1.0 | 0.00 | 0.00 | 0.00 | 48 | 1000.0 |
| 20260504230021 | 80 | 117 | 0.0 | 1.0 | 0.00 | 0.00 | 0.00 | 48 | 1000.0 |
| 20260504225602 | 80 | 117 | 0.0 | 1.0 | 0.00 | 0.00 | 0.00 | 49 | 1000.0 |
| 20260504225037 | 80 | 117 | 0.0 | 1.0 | 0.00 | 0.00 | 0.00 | 49 | 1000.0 |
| 20260504224517 | 80 | 117 | 0.0 | 0.0 | 0.00 | 0.00 | 0.00 | 49 | 1000.0 |
| 20260504224058 | 80 | 117 | 0.0 | 0.0 | 0.00 | 0.00 | 0.00 | 49 | 1000.0 |
| 20260504223534 | 80 | 117 | 0.0 | 1.0 | 0.00 | 0.00 | 0.00 | 48 | 1000.0 |
| 20260504223008 | 80 | 117 | 0.0 | 2.0 | 0.00 | 0.00 | 0.00 | 48 | 1000.0 |
| 20260504222548 | 80 | 117 | 0.0 | 2.0 | 0.00 | 0.00 | 0.00 | 47 | 1000.0 |
| 20260504222025 | 80 | 117 | 0.0 | 2.0 | 0.00 | 0.00 | 0.00 | 47 | 1000.1 |
| 20260504221610 | 80 | 117 | 0.0 | 2.0 | 0.00 | 0.00 | 0.00 | 46 | 1000.2 |
| 20260504221040 | 80 | 334 | 0.0 | 2.0 | 0.00 | 0.00 | 0.00 | 46 | 1000.2 |
| 20260504220516 | 80 | 298 | 0.0 | 2.0 | 0.00 | 0.00 | 0.00 | 46 | 1000.1 |
| 20260504220057 | 80 | 283 | 0.0 | 2.0 | 0.00 | 0.00 | 0.00 | 45 | 1000.2 |
| 20260504215534 | 80 | 275 | 0.0 | 2.0 | 0.00 | 0.00 | 0.00 | 46 | 1000.2 |
| 20260504215009 | 80 | 275 | 0.0 | 2.0 | 0.00 | 0.00 | 0.00 | 46 | 1000.2 |
| 20260504214549 | 80 | 280 | 0.0 | 2.0 | 0.00 | 0.00 | 0.00 | 45 | 1000.3 |
| 20260504214028 | 80 | 264 | 0.0 | 2.0 | 0.00 | 0.00 | 0.00 | 45 | 1000.3 |
| 20260504213503 | 81 | 131 | 0.0 | 3.0 | 0.00 | 0.00 | 0.00 | 45 | 1000.3 |
| 20260504213043 | 81 | 118 | 0.0 | 4.0 | 0.00 | 0.00 | 0.00 | 45 | 1000.3 |
| 20260504212519 | 81 | 176 | 0.0 | 6.0 | 0.00 | 0.00 | 0.00 | 45 | 1000.4 |
| 20260504212100 | 81 | 210 | 0.0 | 6.0 | 0.00 | 0.00 | 0.00 | 46 | 1000.3 |
| 20260504211544 | 81 | 203 | 0.0 | 5.0 | 0.00 | 0.00 | 0.00 | 45 | 1000.4 |
| 20260504211012 | 81 | 218 | 1.0 | 5.0 | 0.00 | 0.00 | 0.00 | 46 | 1000.3 |
| 20260504210553 | 81 | 126 | 1.0 | 5.0 | 0.00 | 0.00 | 0.00 | 45 | 1000.4 |
| 20260504210047 | 81 | 129 | 1.0 | 4.0 | 0.00 | 0.00 | 0.00 | 44 | 1000.4 |
| 20260504205506 | 81 | 146 | 0.0 | 2.0 | 0.00 | 0.00 | 0.00 | 46 | 1000.4 |
| 20260504205047 | 81 | 224 | 0.0 | 3.0 | 0.00 | 0.00 | 0.00 | 46 | 1000.4 |
| 20260504204524 | 81 | 274 | 0.0 | 2.0 | 0.00 | 0.00 | 0.00 | 44 | 1000.4 |
| 20260504204108 | 81 | 174 | 0.0 | 2.0 | 0.00 | 0.00 | 0.00 | 45 | 1000.5 |
| 20260504203541 | 81 | 269 | 0.0 | 2.0 | 0.00 | 0.00 | 0.00 | 45 | 1000.6 |
| 20260504203023 | 81 | 181 | 0.0 | 2.0 | 0.00 | 0.00 | 0.00 | 46 | 1000.7 |
| 20260504202559 | 81 | 283 | 0.0 | 2.0 | 0.00 | 0.00 | 0.00 | 46 | 1000.8 |
| 20260504202036 | 80 | 172 | 0.0 | 3.0 | 0.00 | 0.00 | 0.00 | 47 | 1000.9 |
| 20260504201511 | 80 | 321 | 0.0 | 4.0 | 0.00 | 0.00 | 0.00 | 47 | 1000.8 |
| 20260504201054 | 80 | 278 | 0.0 | 4.0 | 0.00 | 0.00 | 0.00 | 45 | 1000.7 |
| 20260504200529 | 80 | 167 | 0.0 | 4.0 | 0.00 | 0.00 | 0.00 | 47 | 1000.8 |
| 20260504200012 | 80 | 295 | 0.0 | 3.0 | 0.00 | 0.00 | 0.00 | 45 | 1000.9 |
| 20260504195554 | 80 | 274 | 0.0 | 3.0 | 0.00 | 0.00 | 0.00 | 45 | 1000.9 |
| 20260504195029 | 79 | 158 | 0.0 | 3.0 | 0.00 | 0.00 | 0.00 | 46 | 1000.9 |
| 20260504194508 | 79 | 159 | 0.0 | 3.0 | 0.00 | 0.00 | 0.00 | 46 | 1000.9 |
| 20260504194043 | 79 | 252 | 0.0 | 2.0 | 0.00 | 0.00 | 0.00 | 46 | 1000.9 |
| 20260504193518 | 79 | 284 | 0.0 | 4.0 | 0.00 | 0.00 | 0.00 | 48 | 1000.9 |
| 20260504193100 | 79 | 269 | 0.0 | 4.0 | 0.00 | 0.00 | 0.00 | 46 | 1001.1 |
| 20260504192535 | 79 | 270 | 1.0 | 4.0 | 0.00 | 0.00 | 0.00 | 46 | 1001.1 |
| 20260504192012 | 79 | 293 | 0.0 | 3.0 | 0.00 | 0.00 | 0.00 | 49 | 1001.1 |
| 20260504191554 | 78 | 250 | 0.0 | 3.0 | 0.00 | 0.00 | 0.00 | 47 | 1001.0 |
| 20260504191029 | 78 | 277 | 1.0 | 3.0 | 0.00 | 0.00 | 0.00 | 47 | 1001.0 |
| 20260504190505 | 78 | 297 | 0.0 | 4.0 | 0.00 | 0.00 | 0.00 | 49 | 1001.2 |
| 20260504190103 | 78 | 169 | 0.0 | 4.0 | 0.00 | 0.00 | 0.00 | 50 | 1001.1 |
| 20260504185525 | 78 | 177 | 0.0 | 4.0 | 0.00 | 0.00 | 0.00 | 49 | 1001.2 |
| 20260504185103 | 78 | 148 | 0.0 | 4.0 | 0.00 | 0.00 | 0.00 | 46 | 1001.2 |
| 20260504184541 | 78 | 281 | 1.0 | 6.0 | 0.00 | 0.00 | 0.00 | 47 | 1001.3 |
| 20260504184014 | 78 | 195 | 0.0 | 6.0 | 0.00 | 0.00 | 0.00 | 49 | 1001.4 |
| 20260504183555 | 78 | 150 | 0.0 | 4.0 | 0.00 | 0.00 | 0.00 | 51 | 1001.3 |
| 20260504183031 | 78 | 144 | 0.0 | 4.0 | 0.00 | 0.00 | 0.00 | 51 | 1001.4 |
| 20260504182509 | 78 | 112 | 0.0 | 5.0 | 0.00 | 0.00 | 0.00 | 51 | 1001.4 |
| 20260504182048 | 78 | 153 | 2.0 | 5.0 | 0.00 | 0.00 | 0.00 | 50 | 1001.3 |
| 20260504181525 | 78 | 195 | 0.0 | 4.0 | 0.00 | 0.00 | 0.00 | 48 | 1001.4 |
| 20260504181106 | 78 | 127 | 1.0 | 3.0 | 0.00 | 0.00 | 0.00 | 52 | 1001.4 |
| 20260504180541 | 77 | 173 | 0.0 | 5.0 | 0.00 | 0.00 | 0.00 | 50 | 1001.5 |
| 20260504180020 | 77 | 183 | 0.0 | 5.0 | 0.00 | 0.00 | 0.00 | 49 | 1001.6 |
| 20260504175557 | 77 | 198 | 0.0 | 5.0 | 0.00 | 0.00 | 0.00 | 49 | 1001.5 |
| 20260504175036 | 77 | 157 | 0.0 | 3.0 | 0.00 | 0.00 | 0.00 | 49 | 1001.6 |
| 20260504174509 | 76 | 319 | 0.0 | 3.0 | 0.00 | 0.00 | 0.00 | 53 | 1001.7 |
| 20260504174052 | 76 | 51 | 0.0 | 2.0 | 0.00 | 0.00 | 0.00 | 52 | 1001.8 |
| 20260504173526 | 76 | 93 | 0.0 | 4.0 | 0.00 | 0.00 | 0.00 | 51 | 1001.9 |
| 20260504173008 | 76 | 93 | 1.0 | 5.0 | 0.00 | 0.00 | 0.00 | 50 | 1001.9 |
| 20260504172544 | 76 | 157 | 0.0 | 5.0 | 0.00 | 0.00 | 0.00 | 53 | 1001.9 |
| 20260504172020 | 75 | 314 | 0.0 | 4.0 | 0.00 | 0.00 | 0.00 | 52 | 1002.0 |
| 20260504171602 | 75 | 302 | 1.0 | 3.0 | 0.00 | 0.00 | 0.00 | 49 | 1002.0 |
| 20260504171036 | 75 | 259 | 0.0 | 2.0 | 0.00 | 0.00 | 0.00 | 52 | 1002.0 |
| 20260504170513 | 75 | 173 | 0.0 | 3.0 | 0.00 | 0.00 | 0.00 | 53 | 1002.0 |
| 20260504151043 | 70 | 278 | 0.0 | 4.0 | 0.00 | 0.00 | 0.00 | 57 | 1002.6 |
| 20260504150520 | 69 | 229 | 1.0 | 5.0 | 0.00 | 0.00 | 0.00 | 55 | 1002.6 |
| 20260504141015 | 67 | 164 | 0.0 | 5.0 | 0.00 | 0.00 | 0.00 | 59 | 1002.8 |
| 20260504140556 | 67 | 214 | 0.0 | 5.0 | 0.00 | 0.00 | 0.00 | 60 | 1002.8 |
| 20260504130527 | 64 | 155 | 0.0 | 2.0 | 0.00 | 0.00 | 0.00 | 62 | 1002.9 |
| 20260504110538 | 64 | 122 | 0.0 | 1.0 | 0.00 | 0.00 | 0.00 | 59 | 1003.5 |
| 20260504100510 | 65 | 235 | 0.0 | 3.0 | 0.00 | 0.00 | 0.00 | 56 | 1003.5 |
| 20260504081604 | 61 | 257 | 0.0 | 0.0 | 0.00 | 0.00 | 0.00 | 66 | 1004.4 |
| 20260504081040 | 61 | 257 | 0.0 | 0.0 | 0.00 | 0.00 | 0.00 | 66 | 1004.4 |
| 20260504080516 | 62 | 257 | 0.0 | 0.0 | 0.00 | 0.00 | 0.00 | 66 | 1004.5 |
| 20260504060103 | 66 | 257 | 0.0 | 2.0 | 0.00 | 0.00 | 0.00 | 60 | 1006.4 |
| 20260504050558 | 64 | 279 | 0.0 | 0.0 | 0.00 | 0.00 | 0.00 | 67 | 1006.8 |
| 20260504045509 | 65 | 279 | 0.0 | 0.0 | 0.00 | 0.00 | 0.00 | 66 | 1006.6 |
| 20260504045051 | 65 | 279 | 0.0 | 0.0 | 0.00 | 0.00 | 0.00 | 66 | 1006.5 |
| 20260504044526 | 66 | 279 | 0.0 | 0.0 | 0.00 | 0.00 | 0.00 | 66 | 1006.5 |
| 20260504044107 | 66 | 279 | 0.0 | 0.0 | 0.00 | 0.00 | 0.00 | 65 | 1006.5 |
| 20260504043539 | 66 | 279 | 0.0 | 0.0 | 0.00 | 0.00 | 0.00 | 65 | 1006.4 |
| 20260504043014 | 65 | 279 | 0.0 | 0.0 | 0.00 | 0.00 | 0.00 | 65 | 1006.4 |
| 20260504042554 | 65 | 279 | 0.0 | 0.0 | 0.00 | 0.00 | 0.00 | 65 | 1006.5 |
| 20260504042031 | 65 | 279 | 0.0 | 1.0 | 0.00 | 0.00 | 0.00 | 66 | 1006.3 |
| 20260504041506 | 65 | 158 | 0.0 | 1.0 | 0.00 | 0.00 | 0.00 | 67 | 1006.3 |
| 20260504041047 | 65 | 158 | 0.0 | 1.0 | 0.00 | 0.00 | 0.00 | 68 | 1006.5 |
| 20260504040523 | 64 | 158 | 0.0 | 0.0 | 0.00 | 0.00 | 0.00 | 68 | 1006.3 |
| 20260504040108 | 64 | 158 | 0.0 | 0.0 | 0.00 | 0.00 | 0.00 | 67 | 1006.5 |
| 20260504035540 | 64 | 158 | 0.0 | 0.0 | 0.00 | 0.00 | 0.00 | 68 | 1006.7 |
| 20260504035016 | 65 | 158 | 0.0 | 0.0 | 0.00 | 0.00 | 0.00 | 68 | 1006.8 |
| 20260504034555 | 65 | 158 | 0.0 | 0.0 | 0.00 | 0.00 | 0.00 | 68 | 1006.9 |
| 20260504034030 | 65 | 158 | 0.0 | 2.0 | 0.00 | 0.00 | 0.00 | 67 | 1006.9 |
| 20260504033512 | 65 | 158 | 0.0 | 2.0 | 0.00 | 0.00 | 0.00 | 68 | 1006.9 |
| 20260504033049 | 65 | 158 | 0.0 | 0.0 | 0.00 | 0.00 | 0.00 | 67 | 1007.0 |
| 20260504032522 | 65 | 158 | 0.0 | 0.0 | 0.00 | 0.00 | 0.00 | 66 | 1007.0 |
| 20260504032104 | 65 | 158 | 0.0 | 0.0 | 0.00 | 0.00 | 0.00 | 67 | 1007.0 |
| 20260504031558 | 65 | 158 | 0.0 | 0.0 | 0.00 | 0.00 | 0.00 | 65 | 1007.1 |
| 20260504031016 | 65 | 158 | 0.0 | 0.0 | 0.00 | 0.00 | 0.00 | 65 | 1007.1 |
| 20260504030556 | 65 | 158 | 0.0 | 0.0 | 0.00 | 0.00 | 0.00 | 66 | 1007.0 |
| 20260504030040 | 66 | 158 | 0.0 | 0.0 | 0.00 | 0.00 | 0.00 | 65 | 1007.1 |
| 20260504025509 | 66 | 158 | 0.0 | 0.0 | 0.00 | 0.00 | 0.00 | 64 | 1007.1 |
| 20260504025054 | 66 | 158 | 0.0 | 0.0 | 0.00 | 0.00 | 0.00 | 63 | 1007.1 |
| 20260504024526 | 66 | 158 | 0.0 | 0.0 | 0.00 | 0.00 | 0.00 | 62 | 1007.2 |
| 20260504024001 | 67 | 158 | 0.0 | 0.0 | 0.00 | 0.00 | 0.00 | 62 | 1007.1 |
| 20260504023544 | 67 | 158 | 0.0 | 0.0 | 0.00 | 0.00 | 0.00 | 61 | 1007.0 |
| 20260504023019 | 67 | 158 | 0.0 | 0.0 | 0.00 | 0.00 | 0.00 | 60 | 1007.0 |
| 20260504022600 | 67 | 158 | 0.0 | 0.0 | 0.00 | 0.00 | 0.00 | 59 | 1007.0 |
| 20260504022035 | 68 | 158 | 0.0 | 0.0 | 0.00 | 0.00 | 0.00 | 58 | 1007.1 |
| 20260504021512 | 68 | 158 | 0.0 | 0.0 | 0.00 | 0.00 | 0.00 | 57 | 1007.0 |
| 20260504021052 | 68 | 158 | 0.0 | 0.0 | 0.00 | 0.00 | 0.00 | 57 | 1007.1 |
| 20260504020528 | 69 | 158 | 0.0 | 0.0 | 0.00 | 0.00 | 0.00 | 56 | 1007.0 |
| 20260504020004 | 69 | 158 | 0.0 | 0.0 | 0.00 | 0.00 | 0.00 | 55 | 1007.1 |
| 20260504015546 | 69 | 158 | 0.0 | 0.0 | 0.00 | 0.00 | 0.00 | 55 | 1007.1 |
| 20260504015022 | 70 | 158 | 0.0 | 0.0 | 0.00 | 0.00 | 0.00 | 53 | 1007.0 |
| 20260504014602 | 70 | 158 | 0.0 | 0.0 | 0.00 | 0.00 | 0.00 | 53 | 1007.0 |
| 20260504014037 | 71 | 158 | 0.0 | 0.0 | 0.00 | 0.00 | 0.00 | 54 | 1007.1 |
| 20260504013513 | 71 | 158 | 0.0 | 0.0 | 0.00 | 0.00 | 0.00 | 52 | 1007.0 |
| 20260504013059 | 72 | 158 | 0.0 | 0.0 | 0.00 | 0.00 | 0.00 | 52 | 1007.0 |